EXPRESS-AM7 (40505 NORAD) Tracking and Keplerian Element Data

This shows tracking and keplerian element data for the satellite.

Feedback or suggestion? Click here.




ElementValue
Catalog40505
NameEXPRESS-AM7
Epoch Orbit2737
Epoch Day269.76785542
Epoch Year2022
RAAN191.5866
Inclination0.022
Eccentricity0.000271
Argument of Perigee0.2434
Mean Anonmoly130.1245
Mean Motion1.00269754
Decay Rate1.54E-06
L11 40505U 15012A 22269.76785542 .00000154 00000+0 00000+0 0 9996
L22 40505 0.0220 191.5866 0002710 0.2434 130.1245 1.00269754 27378

Live tracking and technical data element details for EXPRESS-AM7 (NORAD 40505). EXPRESS-AM7 can be tracked NOW for your location showing map with azimuth and elevation plus other details from your city location.

Track the satellite on the map from your city or location and see movement details for azimuth, elevation, latitude, longitude, range, height, and movement on the map or in text.







IsCatalogInMostPopularTable: catalog: 40505, numindb: 611
Update: records affected: 1



GetName: 40505 EXPRESS-AM7

Hit Count: updated at: Wed, 28 Sep 2022 23:38:54 GMT